Location: Newark
(49.1939°N, 0.8136°E)
Time: 20:38:07
(UTC+00:00)

Envisat - Pass Details

Date: 27 November 2019
Orbit: 764 x 766 km, 98.1° (Epoch: 09 December)

Event Time Altitude Azimuth Distance (km) Brightness Sun altitude
Rises 18:59:39 0° 203° (SSW) 3,221 6.5 -28.0°
Reaches altitude 10° 19:02:26 10° 219° (SW) 2,300 5.9 -28.5°
Maximum altitude 19:06:19 22° 269° (W) 1,635 5.4 -29.1°
Drops below altitude 10° 19:10:14 10° 320° (NW) 2,312 5.9 -29.8°
Sets 19:13:04 0° 335° (NNW) 3,244 6.6 -30.2°
